This demonstration page uses our WeatherBlox Daily Observations layout. Learn more.

40.92945, -100.16068

Hourly Observations for May 9, 2016

Temp ( °F °C ) Dew Point ( °F °C ) Humidity (%) Winds ( mph kmh ) Pressure ( in mb ) Visibility ( mi km ) Precip ( " mm )
12:15 am 00:15 Clear 51 10.4 47 8.1 86 86 NE 8 13 29.62 1003 10 16.0934 N/A
12:35 am 00:35 Clear 50 10.1 46 8 87 87 NE 7 11 29.62 1003 10 16.0934 N/A
12:55 am 00:55 Clear 50 10 46 7.6 85 85 NE 6 9 29.59 1002 10 16.0934 0 0
1:15 am 01:15 Clear 50 10 46 7.7 86 86 ENE 6 9 29.62 1003 10 16.0934 N/A
1:35 am 01:35 Clear 50 10 47 8.1 88 88 ENE 7 11 29.59 1002 10 16.0934 N/A
1:55 am 01:55 Clear 50 10.1 47 8.4 89 89 NNE 6 9 29.59 1002 10 16.0934 N/A
2:15 am 02:15 Clear 50 10 47 8.4 90 90 NNE 5 7 29.59 1002 10 16.0934 N/A
2:35 am 02:35 Clear 50 10 47 8.1 88 88 NE 6 9 29.56 1001 10 16.0934 N/A
2:55 am 02:55 Clear 49 9.3 46 7.9 91 91 ENE 5 7 29.56 1001 10 16.0934 N/A
3:15 am 03:15 Clear 49 9.5 47 8.1 91 91 E 9 15 29.56 1001 10 16.0934 N/A
3:35 am 03:35 Clear 50 10 47 8.5 91 91 ESE 9 15 29.56 1001 10 16.0934 N/A
3:55 am 03:55 Clear 50 10.1 47 8.5 90 90 SE 8 13 29.56 1001 10 16.0934 N/A
4:15 am 04:15 Clear 49 9.6 47 8.1 90 90 ENE 3 6 29.56 1001 10 16.0934 N/A
4:35 am 04:35 Clear 47 8.5 45 7.2 92 92 ESE 5 7 29.59 1002 10 16.0934 N/A
4:55 am 04:55 Clear 48 9.1 46 8 93 93 Calm 29.53 1000 10 16.0934 N/A
5:15 am 05:15 Clear 47 8.2 45 7.2 93 93 Calm 29.56 1001 7 11.26538 N/A
5:35 am 05:35 Clear with Mist and Fog 46 7.8 44 6.8 93 93 Calm 29.56 1001 5 8.0467 N/A
5:55 am 05:55 Mostly Cloudy with Mist and Fog 44 6.8 43 5.9 94 94 Calm 29.59 1002 1.25 2.011675 N/A
6:15 am 06:15 Mostly Cloudy with Fog 44 6.9 43 6 94 94 Calm 29.59 1002 0.25 0.402335 N/A
6:35 am 06:35 Mostly Cloudy with Mist and Fog 46 7.7 44 6.9 95 95 Calm 29.59 1002 1.25 2.011675 N/A
6:55 am 06:55 Mostly Cloudy with Fog 44 6.9 43 6.1 95 95 Calm 29.59 1002 0.25 0.402335 0 0
7:15 am 07:15 Mostly Cloudy with Fog 45 7.2 44 6.4 95 95 Calm 29.59 1002 5 8.0467 N/A
7:35 am 07:35 Mostly Cloudy with Mist and Fog 48 8.7 46 7.9 95 95 Calm 29.59 1002 1.5 2.41401 N/A
7:55 am 07:55 Sunny 51 10.6 50 9.8 95 95 Calm 29.56 1001 7 11.26538 N/A
8:15 am 08:15 Partly Cloudy 53 11.5 51 10.7 95 95 Calm 29.56 1001 10 16.0934 N/A
8:35 am 08:35 Mostly Cloudy 54 12 51 10.5 91 91 Calm 29.56 1001 10 16.0934 N/A
8:55 am 08:55 Cloudy 54 12.1 51 10.4 89 89 Calm 29.59 1002 10 16.0934 N/A
9:15 am 09:15 Cloudy 54 12.2 51 10.3 88 88 Calm 29.59 1002 10 16.0934 N/A
9:35 am 09:35 Cloudy 55 12.9 51 10.8 87 87 N 3 6 29.56 1001 10 16.0934 N/A
9:55 am 09:55 Cloudy 56 13.5 51 10.8 84 84 N 3 6 29.56 1001 10 16.0934 N/A
10:15 am 10:15 Cloudy 57 14 52 11.3 84 84 NE 3 6 29.56 1001 10 16.0934 N/A
10:35 am 10:35 Cloudy 57 14 51 10.7 81 81 ENE 5 7 29.56 1001 10 16.0934 N/A
10:55 am 10:55 Cloudy 58 14.5 52 11.1 80 80 E 5 7 29.56 1001 10 16.0934 N/A
11:15 am 11:15 Cloudy 58 14.7 52 11.3 80 80 ESE 8 13 29.56 1001 10 16.0934 N/A
11:35 am 11:35 Cloudy 58 14.7 53 11.7 82 82 E 6 9 29.56 1001 10 16.0934 N/A
11:55 am 11:55 Cloudy 58 14.5 53 11.6 83 83 E 7 11 29.56 1001 10 16.0934 N/A
12:15 pm 12:15 Cloudy 59 14.9 54 12.1 83 83 ENE 6 9 29.56 1001 10 16.0934 N/A
12:35 pm 12:35 Cloudy 59 15 54 12.3 84 84 ENE 5 7 29.56 1001 7 11.26538 N/A
12:55 pm 12:55 Cloudy 60 15.5 55 12.7 84 84 E 7 11 29.56 1001 10 16.0934 N/A
1:15 pm 13:15 Cloudy 61 16.1 56 13.2 83 83 E 7 11 29.53 1000 10 16.0934 N/A
1:35 pm 13:35 Cloudy 62 16.5 56 13.5 83 83 E 6 9 29.5 999 10 16.0934 N/A
1:55 pm 13:55 Cloudy 62 16.6 56 13.6 83 83 ENE 6 9 29.5 999 10 16.0934 N/A
2:15 pm 14:15 Cloudy 64 17.6 57 13.9 79 79 ENE 3 6 29.5 999 10 16.0934 N/A
2:35 pm 14:35 Cloudy 65 18.3 57 14 76 76 ESE 8 13 29.5 999 10 16.0934 N/A
2:55 pm 14:55 Mostly Cloudy 64 17.5 57 13.7 79 79 ESE 9 15 29.53 1000 10 16.0934 N/A
3:15 pm 15:15 Mostly Cloudy 65 18.2 57 14 77 77 ESE 7 11 29.5 999 10 16.0934 N/A
3:35 pm 15:35 Partly Cloudy 66 18.7 56 13.5 72 72 ENE 6 9 29.5 999 10 16.0934 N/A
3:55 pm 15:55 Partly Cloudy 67 19.4 57 13.7 70 70 ENE 6 9 29.47 998 10 16.0934 N/A
4:15 pm 16:15 Partly Cloudy 67 19.7 58 14.3 71 71 ENE 6 9 29.47 998 10 16.0934 N/A
4:35 pm 16:35 Partly Cloudy 66 19 56 13.2 69 69 NE 3 6 29.5 999 10 16.0934 N/A
4:55 pm 16:55 Partly Cloudy 68 20.2 56 13.1 64 64 N 3 6 29.47 998 10 16.0934 N/A
5:15 pm 17:15 Mostly Cloudy 67 19.5 56 13.4 68 68 Calm 29.47 998 10 16.0934 N/A
5:35 pm 17:35 Mostly Cloudy 67 19.5 56 13.1 67 67 NE 3 6 29.47 998 10 16.0934 N/A
5:55 pm 17:55 Mostly Cloudy 67 19.6 57 13.9 70 70 E 7 11 29.47 998 10 16.0934 N/A
6:15 pm 18:15 Mostly Cloudy 65 18.5 57 13.8 74 74 ENE 8 13 29.5 999 10 16.0934 N/A
6:35 pm 18:35 Partly Cloudy 65 18.4 58 14.4 78 78 E 5 7 29.5 999 10 16.0934 N/A
6:55 pm 18:55 Sunny 67 19.2 58 14.3 73 73 NNE 3 6 29.47 998 10 16.0934 N/A
7:15 pm 19:15 Sunny 67 19.2 58 14.2 73 73 Calm 29.47 998 10 16.0934 N/A
7:35 pm 19:35 Sunny 67 19.2 58 14.3 73 73 N 5 7 29.47 998 10 16.0934 N/A
7:55 pm 19:55 Sunny 65 18.2 56 13.6 75 75 NNW 7 11 29.47 998 10 16.0934 N/A
8:15 pm 20:15 Sunny 63 17.3 56 13.6 79 79 NNW 7 11 29.5 999 10 16.0934 N/A
8:35 pm 20:35 Sunny 62 16.6 57 13.7 83 83 N 5 7 29.5 999 10 16.0934 N/A
8:55 pm 20:55 Clear 59 14.8 54 12.4 86 86 NE 3 6 29.53 1000 10 16.0934 N/A
9:15 pm 21:15 Clear 58 14.4 53 11.6 83 83 E 8 13 29.53 1000 10 16.0934 N/A
9:35 pm 21:35 Clear 59 15.2 54 12.3 83 83 ESE 6 9 29.56 1001 10 16.0934 N/A
9:55 pm 21:55 Clear 60 15.6 55 12.6 82 82 SE 3 6 29.59 1002 10 16.0934 N/A
10:15 pm 22:15 Clear 59 14.9 54 12.2 84 84 S 3 6 29.59 1002 10 16.0934 N/A
10:35 pm 22:35 Clear 59 14.8 53 11.9 83 83 Calm 29.62 1003 10 16.0934 N/A
10:55 pm 22:55 Clear 58 14.4 54 12 86 86 Calm 29.59 1002 10 16.0934 N/A
11:35 pm 23:35 Partly Cloudy 58 14.5 55 12.6 88 88 Calm 29.59 1002 10 16.0934 N/A
11:55 pm 23:55 Mostly Cloudy with Mist and Fog 56 13.2 54 12 93 93 NE 5 7 29.59 1002 5 8.0467 N/A

Powered by AerisWeather